Location: *
(48.8489°N, 2.3218°E)
Time: 23:46:21
(UTC+00:00)

Meteor 1-24 Rocket - Pass Details

Date: 23 August 2019
Orbit: 791 x 926 km, 81.2° (Epoch: 18 October)

Event Time Altitude Azimuth Distance (km) Brightness Sun altitude
Rises 23:37:43 0° 348° (NNW) 3,309 8.0 -29.8°
Reaches altitude 10° 23:40:05 10° 349° (NNW) 2,382 7.0 -29.8°
Enters shadow 23:44:43 68° 355° (N) 875 3.8 -29.8°
